Location: The Dilly Hill Observatory
(31.5262°N, 86.8310°W)
Time: 18:28:58
(UTC-06:00)

Tiangong 2 - Visible Passes

Search period start: 21 January 2018 00:00
Search period end: 31 January 2018 00:00
Orbit: 384 x 390 km, 42.8° (Epoch: 21 January)

Date Brightness Start Highest point End Pass type
(mag) Time Alt. Az. Time Alt. Az. Time Alt. Az.
21 Jan 3.4 06:01:30 10° NW 06:02:58 12° N 06:04:27 10° NNE visible
22 Jan 3.8 05:05:33 12° NNE 05:05:33 12° NNE 05:06:00 10° NNE visible
23 Jan 3.6 05:41:53 10° NNW 05:42:39 11° N 05:43:39 10° NNE visible
25 Jan 3.7 05:22:08 11° N 05:22:18 11° N 05:23:21 10° NNE visible
26 Jan 3.4 05:58:49 10° NNW 06:00:55 16° NNE 06:03:03 10° ENE visible
27 Jan 3.8 05:02:20 13° NNE 05:02:20 13° NNE 05:03:28 10° NE visible
28 Jan 2.9 05:38:35 15° NNW 05:40:24 23° NNE 05:43:02 10° ENE visible
29 Jan 3.9 04:42:37 14° NE 04:42:37 14° NE 04:43:34 10° ENE visible
29 Jan 1.2 06:15:23 10° NW 06:18:35 78° NE 06:21:45 10° ESE visible
30 Jan 2.1 05:18:58 33° N 05:19:45 39° NNE 05:22:46 10° E visible
